Location: BAF
(53.9483°N, 27.7497°E)
Time: 03:56:32
(UTC+03:00)

ISS - Visible Passes

Search period start: 17 July 2019 00:00
Search period end: 27 July 2019 00:00
Orbit: 409 x 418 km, 51.6° (Epoch: 17 July)

Date Brightness Start Highest point End Pass type
(mag) Time Alt. Az. Time Alt. Az. Time Alt. Az.
17 Jul -3.3 00:09:30 10° SW 00:12:37 38° SSE 00:15:45 10° E visible
17 Jul -3.8 01:45:46 10° W 01:49:03 58° S 01:52:20 10° E visible
17 Jul -3.2 03:22:24 10° W 03:25:29 35° SSW 03:28:32 10° SE visible
17 Jul -3.0 23:20:31 10° SW 23:23:28 29° SSE 23:26:26 10° E visible
18 Jul -3.8 00:56:33 10° WSW 00:59:50 57° S 01:03:06 10° E visible
18 Jul -3.5 02:33:06 10° W 02:36:18 44° SSW 02:39:29 10° ESE visible
18 Jul -2.2 04:10:16 10° WSW 04:12:26 16° SW 04:14:35 10° S visible
18 Jul -2.6 22:31:40 10° SSW 22:34:20 22° SSE 22:37:01 10° E visible
19 Jul -3.7 00:07:21 10° WSW 00:10:35 51° S 00:13:51 10° E visible
19 Jul -3.7 01:43:50 10° W 01:47:05 51° S 01:50:19 10° ESE visible
19 Jul -2.6 03:20:41 10° W 03:23:21 22° SSW 03:25:59 10° SSE visible
19 Jul -3.5 23:18:10 10° WSW 23:21:22 44° SSE 23:24:34 10° E visible
20 Jul -3.8 00:54:33 10° W 00:57:50 57° S 01:01:07 10° ESE visible
20 Jul -3.0 02:31:15 10° W 02:34:12 29° SSW 02:37:08 10° SE visible
20 Jul -3.2 22:29:04 10° SW 22:32:09 35° SSE 22:35:15 10° E visible
21 Jul -3.8 00:05:17 10° W 00:08:35 58° S 00:11:52 10° E visible
21 Jul -3.3 01:41:53 10° W 01:45:01 37° SSW 01:45:18 36° S visible
21 Jul -3.7 23:16:01 10° WSW 23:19:18 56° S 23:22:35 10° E visible
22 Jul -3.6 00:52:34 10° W 00:55:47 46° SSW 00:56:38 36° SSE visible
22 Jul -3.6 22:26:47 10° WSW 22:30:02 50° SSE 22:33:17 10° E visible
23 Jul -3.7 00:03:14 10° W 00:06:31 53° S 00:08:24 22° ESE visible
23 Jul -1.8 01:40:02 10° W 01:41:11 17° WSW 01:41:11 17° WSW visible
23 Jul -3.7 23:13:55 10° W 23:17:13 58° S 23:20:20 11° ESE visible
24 Jul -2.8 00:50:36 10° W 00:53:07 30° SW 00:53:07 30° SW visible
24 Jul -3.7 22:24:37 10° WSW 22:27:55 58° S 22:31:12 10° E visible
25 Jul -3.3 00:01:11 10° W 00:04:21 40° SSW 00:05:09 33° SSE visible
25 Jul -3.5 23:11:50 10° W 23:15:04 48° SSW 23:17:13 19° SE visible
26 Jul -1.7 00:48:47 10° W 00:50:01 16° WSW 00:50:01 16° WSW visible
26 Jul -3.6 22:22:28 10° W 22:25:45 55° S 22:29:01 10° ESE visible
